Theta_e
314 314 311 308 306 305 306 307 307 307 308 309 309 308 309 310 313 317 315 313 315 313 315 320 320 318 318 317 319 318 318 319 320 321 322 324 324 324 323 322 322 322 322 323 322
314 312 309 306 305 306 307 308 309 310 310 311 310 308 309 311 319 314 312 312 312 312 319 318 318 317 319 318 317 317 317 318 319 320 319 320 321 321 321 321 321 321 321 321 321
314 310 307 305 305 307 308 308 309 310 312 312 310 309 311 313 323 317 311 310 311 311 318 318 317 318 318 319 319 319 319 319 319 319 319 318 319 320 319 319 319 319 320 321 321
312 309 307 306 306 307 308 308 309 311 312 312 309 309 311 315 322 315 311 313 315 316 320 317 318 319 319 318 320 319 319 318 318 319 318 318 318 318 318 318 319 319 320 320 320
309 307 308 308 309 309 310 310 309 310 312 311 309 309 315 319 316 313 315 317 317 318 317 317 318 317 317 318 318 317 318 318 318 318 317 317 317 317 317 317 318 318 318 318 319
308 306 309 309 310 310 311 310 310 311 312 312 311 311 319 319 316 316 317 316 315 316 317 317 317 317 316 318 317 317 317 317 317 317 317 317 317 317 317 318 318 318 317 317 318
309 306 308 310 310 310 309 310 310 311 312 313 313 318 321 316 316 317 318 317 316 316 317 317 316 317 317 317 318 318 317 317 318 319 318 318 318 318 319 319 319 319 318 318 317
310 307 306 309 310 309 309 310 311 311 312 312 313 321 318 316 317 317 316 316 317 317 317 316 316 316 317 318 318 318 319 320 320 320 319 318 319 319 320 319 319 319 319 319 317
311 308 307 308 309 309 309 311 311 311 312 312 319 325 319 316 317 315 316 316 315 316 316 317 317 318 318 319 319 319 319 318 319 320 319 319 319 319 319 320 320 320 321 321 320
312 309 310 310 310 311 309 311 314 311 313 315 319 319 317 317 315 315 316 315 317 317 318 319 319 319 319 319 319 319 318 317 317 317 318 317 317 318 318 318 320 320 320 322 322
311 309 311 311 309 311 314 319 317 320 321 319 318 317 317 316 315 316 316 316 318 318 318 319 318 318 318 319 319 318 317 317 316 317 316 317 318 320 320 320 319 320 321 322 323
309 310 310 309 311 312 313 321 319 319 320 319 317 317 316 315 316 317 316 316 315 316 316 316 317 317 316 315 315 315 316 316 317 317 317 318 319 320 321 319 319 321 322 323 323
306 311 309 310 310 313 318 317 316 318 321 323 318 318 317 315 316 317 316 316 316 316 317 316 316 316 315 315 316 316 316 316 316 316 316 316 318 318 320 321 322 323 323 323 323
304 311 310 310 313 318 319 317 317 319 325 323 319 318 316 316 317 317 315 316 316 316 317 315 316 317 318 317 317 316 316 316 316 317 316 317 320 320 320 320 321 323 322 322 322
304 310 311 311 314 319 317 317 317 320 339 321 317 316 316 317 317 317 316 316 316 316 316 316 317 318 317 317 317 317 317 317 318 318 318 318 319 319 319 319 321 322 322 321 321
305 310 312 316 318 319 316 317 320 330 335 319 317 317 317 318 318 317 317 317 317 317 317 318 318 318 318 316 316 317 318 319 319 320 323 321 325 323 323 325 324 323 322 321 321
309 311 311 315 320 317 317 320 328 333 320 319 317 317 317 317 318 317 317 317 318 319 318 318 318 318 317 317 317 317 318 324 321 321 326 326 326 327 326 324 324 324 321 321 322
312 311 317 315 318 317 318 323 329 323 320 318 316 316 318 318 318 317 318 318 318 317 317 321 321 318 318 317 317 317 316 322 322 322 320 319 323 324 323 324 321 320 321 321 321
314 318 318 320 317 316 320 325 324 322 317 316 316 318 318 318 318 318 318 318 317 316 317 319 320 318 317 317 317 318 318 318 326 324 326 322 321 324 325 323 321 321 321 322 323
314 323 321 317 316 317 322 324 321 318 316 316 317 318 319 318 319 319 318 318 316 316 316 317 321 317 317 318 317 318 318 323 327 331 327 321 323 327 326 324 322 322 322 321 321
317 325 321 316 315 320 325 321 318 317 315 316 317 318 318 319 319 319 318 318 318 317 316 317 318 318 318 318 318 318 318 321 322 325 326 324 322 325 326 323 322 322 322 323 323
321 320 320 314 322 324 320 321 312 317 316 317 318 318 319 319 319 319 319 319 317 315 316 316 317 321 317 315 316 316 318 320 327 327 327 328 329 322 320 322 323 322 321 321 321
322 320 319 317 323 321 318 318 318 318 318 317 318 318 318 318 322 319 319 318 317 317 316 317 319 321 318 317 317 317 317 318 323 325 328 329 324 321 321 320 320 320 320 320 320
322 319 319 316 319 320 320 318 318 318 317 317 317 317 318 320 320 321 320 318 319 318 319 316 320 318 321 317 316 318 317 316 320 324 323 324 320 320 320 320 320 320 321 320 319
318 318 319 317 317 317 319 318 319 320 319 318 319 319 320 321 320 320 319 318 317 319 319 319 321 319 318 317 316 316 315 316 319 320 322 321 322 322 321 320 319 319 319 319 319
315 314 316 316 318 318 319 320 320 319 317 317 318 318 318 319 318 319 317 317 318 317 317 322 322 320 319 316 313 315 317 317 317 319 320 321 321 316 317 317 317 317 317 317 317
311 312 313 315 316 318 317 317 316 316 316 316 317 318 317 317 316 315 315 317 317 319 321 319 322 320 321 315 315 320 317 320 320 320 321 320 317 316 317 316 317 316 315 314 314
Wind_Speed
19 15 12 9 8 7 7 7 7 6 7 7 6 4 2 5 3 3 9 5 5 7 12 15 12 6 9 12 6 13 10 13 18 20 14 17 4 6 4 4 12 11 14 16 14
20 15 10 7 6 6 7 7 7 8 7 7 5 2 4 4 9 11 3 5 6 9 13 9 7 6 9 5 4 7 10 17 15 13 13 20 16 13 9 11 11 12 15 21 16
21 14 9 6 5 5 6 6 5 7 7 6 3 3 5 5 7 5 5 5 5 7 14 8 7 9 10 8 10 7 12 17 21 14 13 19 17 14 14 14 14 18 14 17 13
23 14 8 6 5 4 5 7 6 7 7 5 3 7 7 6 2 6 4 2 5 10 15 10 9 9 10 10 6 9 14 15 16 13 17 15 19 17 17 18 19 19 18 16 13
23 14 8 5 4 5 6 7 6 5 5 3 2 6 6 3 7 6 3 9 11 13 5 8 7 9 11 14 10 14 16 14 12 12 14 16 18 21 20 20 19 21 19 19 16
22 14 8 6 6 7 8 8 5 3 3 2 3 7 6 0 2 2 4 8 6 9 9 7 8 10 10 11 12 16 14 17 18 19 18 19 19 19 19 19 20 20 19 19 20
21 13 8 6 7 10 10 6 3 1 1 3 6 7 3 7 1 3 4 6 4 7 8 10 10 9 14 16 11 15 18 18 20 22 21 11 16 19 21 21 20 19 17 18 18
21 14 9 7 8 11 9 4 1 1 3 5 8 6 3 1 6 6 7 12 6 5 5 8 10 11 11 15 18 19 20 17 19 16 11 15 16 17 17 18 20 10 15 16 15
24 15 9 7 8 12 4 1 1 3 4 6 8 8 3 4 7 4 7 10 13 11 12 10 10 10 13 14 13 17 17 21 21 16 16 16 22 21 17 16 19 15 15 16 15
26 14 8 7 8 10 2 3 4 5 6 8 13 9 5 2 5 7 4 7 8 10 12 15 14 13 13 13 15 24 24 24 25 23 25 25 26 25 24 22 20 20 19 18 19
26 12 6 6 8 8 8 8 5 6 12 11 6 5 2 3 5 10 4 11 15 10 15 11 11 13 18 17 19 20 23 25 25 24 24 25 25 22 23 21 19 20 19 17 16
26 11 5 5 6 11 12 6 8 8 8 8 4 7 2 5 9 2 3 11 12 13 15 13 14 14 20 19 20 21 24 25 25 25 23 21 23 24 26 24 23 22 22 20 18
26 11 7 7 10 11 6 8 9 8 6 10 7 7 1 4 6 6 5 9 13 12 14 15 20 16 12 17 20 20 21 22 26 25 23 23 24 21 26 18 14 27 22 18 15
27 11 7 7 9 4 0 10 9 3 5 11 8 3 6 6 9 4 3 6 10 13 15 11 10 16 18 19 18 21 20 21 23 20 19 21 17 21 20 20 15 24 16 14 9
28 10 4 6 12 6 10 9 7 3 4 7 7 6 5 9 6 10 8 9 13 17 13 19 19 18 19 14 14 19 16 17 21 21 21 22 13 19 21 18 11 10 7 4 6
27 7 6 6 9 8 9 6 4 5 3 7 2 4 9 9 11 3 9 8 14 18 13 20 18 18 15 11 15 19 20 20 20 17 17 20 13 18 3 8 11 8 15 5 4
19 4 6 6 8 10 8 7 6 6 3 4 4 11 13 16 6 9 9 12 13 15 15 17 19 13 6 12 14 17 17 11 12 11 8 9 10 8 14 14 12 13 8 6 2
12 3 4 8 9 9 9 7 7 7 12 11 11 17 18 3 8 11 14 14 13 12 12 14 15 15 14 18 23 21 15 12 21 16 19 17 9 9 11 23 9 4 3 5 3
6 6 9 5 7 6 6 7 4 10 9 11 15 15 10 1 6 13 14 15 7 6 7 12 8 25 22 17 9 13 12 17 11 15 15 16 22 14 19 20 8 3 4 5 8
14 10 5 2 2 5 6 13 8 4 8 9 13 10 12 15 13 13 13 11 4 4 4 10 22 15 18 18 13 17 17 12 6 6 11 11 7 3 12 13 16 13 15 3 2
5 4 6 4 3 5 8 9 7 8 6 7 11 16 16 17 15 15 10 16 8 7 9 14 13 20 19 16 21 17 10 12 10 7 6 13 5 6 5 5 14 14 16 21 19
8 5 5 5 6 8 5 4 1 10 6 11 11 12 14 15 15 16 16 17 6 5 11 13 8 16 24 26 26 21 18 17 7 11 10 7 10 17 10 8 12 15 14 17 15
6 7 5 3 5 8 13 12 14 7 10 10 11 17 16 13 10 8 15 15 15 14 6 9 4 11 17 10 13 18 20 14 16 10 11 12 12 18 14 16 15 11 16 17 14
5 4 2 7 4 4 12 15 11 9 7 8 11 16 16 16 15 14 22 22 21 16 7 5 6 16 15 21 21 24 25 25 21 11 16 19 25 20 19 17 19 6 10 16 13
3 4 4 6 10 15 11 13 15 14 7 7 10 14 15 18 21 23 22 22 23 25 15 9 10 17 19 23 22 27 29 27 24 26 21 25 23 22 20 14 14 14 13 13 13
5 5 7 12 12 11 10 13 14 12 12 15 18 18 15 16 19 25 25 21 22 19 17 8 4 12 17 20 25 28 27 30 26 25 21 17 19 11 12 9 10 14 15 13 11
15 14 7 8 14 12 9 11 13 16 13 10 16 17 18 20 20 21 21 22 24 23 18 14 4 8 24 20 22 20 20 13 17 11 11 14 12 18 20 19 15 17 15 13 15
Wind_Direction
1 357 359 10 35 47 51 43 33 22 6 355 348 338 208 170 182 221 50 35 340 304 303 292 264 289 258 252 252 273 266 266 269 270 315 322 222 169 10 307 306 305 294 294 328
2 359 6 23 49 56 43 31 24 10 357 348 340 294 206 237 294 69 34 350 325 320 321 326 346 320 265 242 257 246 271 263 275 351 326 317 346 355 331 301 264 250 272 255 274
4 3 18 34 56 58 34 19 2 359 355 344 314 225 216 277 259 65 5 333 297 285 286 299 290 278 287 262 275 251 281 306 303 338 328 312 313 313 302 278 272 281 279 291 292
7 12 27 48 63 46 19 6 355 350 352 339 243 220 236 285 38 87 76 103 296 286 288 298 307 293 287 292 304 282 291 291 299 304 310 300 310 302 293 288 293 292 294 295 288
10 15 29 42 42 22 3 354 344 345 356 350 276 261 294 189 65 134 217 278 294 275 288 345 330 341 307 328 314 281 287 280 309 289 273 278 277 286 283 286 285 279 274 275 265
11 16 23 20 10 358 348 342 335 336 359 341 289 282 261 167 102 132 273 285 345 347 332 357 347 334 285 298 300 293 296 301 291 280 276 273 271 282 279 283 275 266 258 268 268
10 10 11 6 355 349 343 343 336 313 347 315 314 319 266 56 331 318 263 329 329 323 326 351 336 313 323 301 301 320 294 283 273 263 251 254 279 267 273 273 261 250 258 256 253
10 5 1 355 351 349 346 354 349 270 290 297 304 300 75 10 282 264 329 316 237 266 279 304 330 304 279 290 280 275 272 272 271 275 225 214 254 258 285 282 291 244 247 257 262
8 7 357 356 356 351 355 52 337 257 255 273 296 223 124 184 235 355 314 334 318 294 271 253 270 278 278 273 283 273 276 299 316 311 297 298 286 294 268 272 277 260 259 261 252
6 7 8 3 352 356 339 279 281 235 253 259 266 271 173 337 13 314 296 298 288 296 280 253 231 259 260 278 301 315 305 302 300 299 306 303 290 284 282 273 273 272 252 242 239
5 3 1 352 335 335 328 290 225 215 235 284 336 301 119 12 221 248 15 295 275 259 279 310 308 288 284 281 284 300 300 296 294 297 289 279 281 308 299 279 264 261 263 257 253
1 352 339 328 320 313 308 288 20 315 297 213 264 275 259 304 287 235 352 310 330 297 301 286 284 313 328 316 306 303 297 292 290 287 284 292 286 278 271 278 271 264 259 254 249
356 344 330 290 296 286 266 3 325 319 268 195 213 278 281 290 314 277 340 325 309 302 313 312 295 306 312 299 303 299 296 297 297 304 297 293 284 295 300 328 270 250 243 243 250
352 335 324 320 297 313 0 340 325 342 269 150 219 194 236 269 240 231 299 314 297 315 317 296 292 325 313 301 301 300 316 314 302 297 290 301 297 278 272 250 203 273 218 226 244
345 322 288 301 305 337 341 335 329 240 279 158 117 117 258 247 271 142 200 249 284 302 297 287 302 302 298 313 329 301 298 295 293 288 281 272 266 271 277 291 301 219 85 15 299
342 309 260 238 257 335 327 325 258 237 227 152 170 243 265 287 303 328 277 277 292 276 271 273 285 287 295 321 303 284 283 289 291 286 268 279 335 281 287 330 38 36 251 177 134
341 272 240 288 324 340 325 257 248 254 159 83 350 318 309 292 331 300 312 288 295 297 299 307 298 318 314 292 296 309 314 308 300 284 306 42 342 256 284 217 191 199 323 6 79
343 221 262 259 307 324 298 262 267 27 17 356 322 308 279 260 303 274 292 293 286 303 296 295 308 317 346 320 301 293 275 277 291 293 294 304 265 257 271 197 181 49 337 279 257
327 258 246 224 310 304 276 254 323 9 357 330 313 299 327 304 298 321 302 312 330 343 297 318 278 321 305 299 317 318 310 297 284 280 275 271 262 349 11 350 74 157 335 50 51
334 279 204 344 317 268 258 266 308 8 329 313 301 291 311 318 311 309 313 305 315 274 272 294 296 295 303 302 262 254 271 297 271 287 290 305 333 288 28 9 333 355 330 18 114
304 255 96 334 231 249 253 297 350 355 338 311 316 315 309 311 312 308 295 301 3 355 335 310 290 294 306 291 291 302 290 264 283 273 272 291 297 129 135 221 288 300 -0 355 351
310 300 76 339 255 234 277 26 353 312 302 280 275 285 295 311 308 300 303 299 78 358 302 299 299 291 298 292 274 263 272 311 286 275 271 275 264 273 357 11 6 320 335 330 329
304 289 142 310 303 338 336 317 308 278 302 314 298 305 300 298 305 276 291 296 300 283 261 313 260 301 308 289 8 327 316 299 303 313 272 281 273 307 321 305 292 291 320 317 309
286 315 10 318 208 307 327 312 314 325 267 303 305 305 292 288 283 288 299 308 306 294 185 223 245 250 263 280 299 298 300 299 292 284 280 270 289 286 288 307 316 280 267 264 273
292 355 13 297 324 323 307 300 302 299 311 281 289 293 300 307 301 297 300 302 301 297 294 201 243 248 258 274 278 281 280 276 273 267 262 279 297 311 296 310 311 306 300 314 296
353 342 337 293 287 302 279 278 289 311 337 314 311 313 302 299 295 299 305 299 296 301 294 309 291 285 283 279 287 286 283 276 265 267 263 284 264 333 308 281 283 295 298 291 283
354 338 302 289 291 289 296 322 311 314 301 297 318 320 308 304 320 307 292 282 275 276 270 271 230 273 275 291 298 292 289 283 298 258 251 306 327 324 307 296 291 293 293 305 298